Location: Wavehorne
(51.0500°N, 0.8333°E)
Time: 18:47:09
(UTC+00:00)

BREEZE-M R/B - Pass Details

Date: 20 June 2021
Orbit: 581 x 26587 km, 48.9° (Epoch: 18 July)

Event Time Altitude Azimuth Distance (km) Brightness Sun altitude
Exits shadow 01:19:59 17° 168° (SSE) 1,491 4.0 -13.4°
Maximum altitude 01:21:16 21° 138° (SE) 1,410 4.1 -13.3°
Drops below altitude 10° 01:24:40 10° 88° (E) 2,469 5.9 -13.1°
Sets 01:28:47 0° 72° (ENE) 4,412 7.5 -12.9°
